This is the latest recevied weather packets stored in our database for station/object DG9MHV-10. If no packets are shown the sender has not sent any weather packets the latest 10 day(s).
| Time | Temp. | Humidity | Pressure | Rain* | Wind** | Luminosity | Snow |
|---|---|---|---|---|---|---|---|
| 1777932667 | 13.33° C | 100% | 1011.2 hPa | - | - | - | - |
| 1777931767 | 13.33° C | 100% | 1011.5 hPa | - | - | - | - |
| 1777930867 | 13.89° C | 100% | 1011.6 hPa | - | - | - | - |
| 1777929966 | 14.44° C | 100% | 1011.7 hPa | - | - | - | - |
| 1777929066 | 14.44° C | 100% | 1011.8 hPa | - | - | - | - |
| 1777928166 | 14.44° C | 100% | 1012 hPa | - | - | - | - |
| 1777927266 | 14.44° C | 100% | 1012.2 hPa | - | - | - | - |
| 1777926366 | 14.44° C | 100% | 1012.3 hPa | - | - | - | - |
| 1777925466 | 14.44° C | 100% | 1011.9 hPa | - | - | - | - |
| 1777924566 | 15° C | 100% | 1012.1 hPa | - | - | - | - |
| 1777923666 | 15.56° C | 100% | 1012.6 hPa | - | - | - | - |
| 1777922766 | 16.67° C | 100% | 1012.8 hPa | - | - | - | - |
| 1777921866 | 18.33° C | 100% | 1012.7 hPa | - | - | - | - |
| 1777920966 | 18.33° C | 100% | 1011.9 hPa | - | - | - | - |
| 1777920065 | 18.89° C | 100% | 1011.7 hPa | - | - | - | - |
| 1777919165 | 18.89° C | 100% | 1011.8 hPa | - | - | - | - |
| 1777918265 | 19.44° C | 100% | 1011.8 hPa | - | - | - | - |
| 1777917365 | 20° C | 100% | 1011.8 hPa | - | - | - | - |
| 1777916465 | 20.56° C | 100% | 1011.8 hPa | - | - | - | - |
| 1777915565 | 20.56° C | 100% | 1011.8 hPa | - | - | - | - |
| 1777914665 | 21.11° C | 100% | 1011.9 hPa | - | - | - | - |
| 1777913765 | 21.67° C | 100% | 1011.7 hPa | - | - | - | - |
| 1777912865 | 22.22° C | 100% | 1011.8 hPa | - | - | - | - |
| 1777911963 | 22.78° C | 100% | 1011.7 hPa | - | - | - | - |
| 1777910177 | 22.78° C | 100% | 1011.8 hPa | - | - | - | - |
* Rain since midnight (hover to see other rain measurements)
** Current wind speed in m/s (hover to see current wind gust speed)